• In Hungary
  • List of Countries
  • For 7 days
  • Water Temperature
  • Satellite Maps
  • Weather Map
  • News
  • Weather Widgets
  • user-avatar
    Login

    Hourly Weather Sharh

    Today, 21 July, Saturday

    Time Temperature Precipitation Wind Pressure Humidity
    00:00 +30°C° 0 mm 7 mps 748 mmHg 61%
    01:00 +29°C° 0 mm 7 mps 748 mmHg 65%
    02:00 +29°C° 0 mm 7 mps 748 mmHg 67%
    03:00 +29°C° 0 mm 7 mps 748 mmHg 69%
    04:00 +29°C° 0 mm 6 mps 748 mmHg 67%
    05:00 +29°C° 0 mm 6 mps 748 mmHg 64%
    06:00 +30°C° 0 mm 6 mps 749 mmHg 60%
    07:00 +32°C° 0 mm 6 mps 749 mmHg 57%
    08:00 +34°C° 0 mm 7 mps 749 mmHg 49%
    09:00 +38°C° 0 mm 7 mps 749 mmHg 41%
    10:00 +43°C° 0 mm 7 mps 749 mmHg 27%
    11:00 +45°C° 0 mm 8 mps 749 mmHg 23%
    12:00 +48°C° 0 mm 8 mps 748 mmHg 20%
    13:00 +50°C° 0 mm 8 mps 748 mmHg 16%
    14:00 +49°C° 0 mm 9 mps 748 mmHg 17%
    15:00 +49°C° 0 mm 10 mps 748 mmHg 18%
    16:00 +50°C° 0 mm 10 mps 747 mmHg 13%
    17:00 +47°C° 0 mm 10 mps 747 mmHg 24%
    18:00 +42°C° 0 mm 11 mps 747 mmHg 34%
    19:00 +37°C° 0 mm 11 mps 748 mmHg 44%
    20:00 +36°C° 0 mm 11 mps 748 mmHg 50%
    21:00 +33°C° 0 mm 11 mps 748 mmHg 57%
    22:00 +31°C° 0 mm 11 mps 749 mmHg 64%
    23:00 +31°C° 0 mm 10 mps 748 mmHg 65%

    Tomorrow, 22 July, Sunday

    Time Temperature Precipitation Wind Pressure Humidity
    00:00 +31°C° 0 mm 10 mps 748 mmHg 67%
    01:00 +29°C° 0 mm 10 mps 748 mmHg 69%
    02:00 +29°C° 0 mm 9 mps 748 mmHg 70%
    03:00 +29°C° 0 mm 9 mps 748 mmHg 72%
    04:00 +28°C° 0 mm 8 mps 748 mmHg 73%
    05:00 +29°C° 0 mm 8 mps 749 mmHg 72%
    06:00 +29°C° 0 mm 8 mps 749 mmHg 71%
    07:00 +29°C° 0 mm 8 mps 749 mmHg 71%
    08:00 +33°C° 0 mm 8 mps 749 mmHg 60%
    09:00 +37°C° 0 mm 8 mps 749 mmHg 50%
    10:00 +39°C° 0 mm 7 mps 749 mmHg 39%
    11:00 +43°C° 0 mm 8 mps 748 mmHg 34%
    12:00 +45°C° 0 mm 8 mps 748 mmHg 28%
    13:00 +48°C° 0 mm 8 mps 748 mmHg 23%
    14:00 +47°C° 0 mm 9 mps 747 mmHg 25%
    15:00 +47°C° 0 mm 9 mps 747 mmHg 28%
    16:00 +45°C° 0 mm 10 mps 746 mmHg 30%
    17:00 +42°C° 0 mm 10 mps 746 mmHg 42%
    18:00 +37°C° 0 mm 10 mps 746 mmHg 53%
    19:00 +33°C° 0 mm 10 mps 747 mmHg 65%
    20:00 +32°C° 0 mm 10 mps 747 mmHg 67%
    21:00 +32°C° 0 mm 10 mps 747 mmHg 70%
    22:00 +31°C° 0 mm 10 mps 748 mmHg 72%
    23:00 +31°C° 0 mm 9 mps 748 mmHg 72%

    Day after tomorrow, 23 July, Monday

    Time Temperature Precipitation Wind Pressure Humidity
    00:00 +29°C° 0 mm 9 mps 747 mmHg 73%
    01:00 +29°C° 0 mm 9 mps 747 mmHg 73%
    02:00 +29°C° 0 mm 9 mps 747 mmHg 74%
    03:00 +28°C° 0 mm 8 mps 747 mmHg 75%
    04:00 +28°C° 0 mm 8 mps 747 mmHg 76%
    05:00 +29°C° 0 mm 7 mps 747 mmHg 74%
    06:00 +29°C° 0 mm 7 mps 747 mmHg 71%
    07:00 +29°C° 0 mm 7 mps 747 mmHg 69%
    08:00 +33°C° 0 mm 7 mps 747 mmHg 57%
    09:00 +38°C° 0 mm 7 mps 747 mmHg 45%
    10:00 +41°C° 0 mm 7 mps 747 mmHg 33%
    11:00 +44°C° 0 mm 8 mps 747 mmHg 29%
    12:00 +47°C° 0 mm 9 mps 747 mmHg 24%
    13:00 +49°C° 0 mm 9 mps 746 mmHg 19%
    14:00 +48°C° 0 mm 10 mps 746 mmHg 23%
    15:00 +45°C° 0 mm 10 mps 745 mmHg 27%
    16:00 +44°C° 0 mm 10 mps 745 mmHg 31%
    17:00 +40°C° 0 mm 10 mps 745 mmHg 43%
    18:00 +36°C° 0 mm 10 mps 745 mmHg 55%
    19:00 +32°C° 0 mm 10 mps 745 mmHg 67%
    20:00 +31°C° 0 mm 10 mps 746 mmHg 70%
    21:00 +31°C° 0 mm 10 mps 747 mmHg 73%
    22:00 +29°C° 0 mm 10 mps 747 mmHg 75%
    23:00 +29°C° 0 mm 10 mps 747 mmHg 76%

    24 July, Tuesday

    Time Temperature Precipitation Wind Pressure Humidity
    00:00 +28°C° 0 mm 9 mps 747 mmHg 77%
    01:00 +28°C° 0 mm 9 mps 747 mmHg 78%
    02:00 +28°C° 0 mm 8 mps 746 mmHg 78%
    03:00 +28°C° 0 mm 8 mps 746 mmHg 79%
    04:00 +28°C° 0 mm 7 mps 746 mmHg 80%
    05:00 +28°C° 0 mm 7 mps 746 mmHg 78%
    06:00 +29°C° 0 mm 7 mps 746 mmHg 76%
    07:00 +29°C° 0 mm 7 mps 746 mmHg 74%
    08:00 +33°C° 0 mm 7 mps 747 mmHg 61%
    09:00 +37°C° 0 mm 8 mps 747 mmHg 48%
    10:00 +40°C° 0 mm 8 mps 747 mmHg 36%
    11:00 +43°C° 0 mm 8 mps 747 mmHg 31%
    12:00 +45°C° 0 mm 9 mps 746 mmHg 26%
    13:00 +49°C° 0 mm 9 mps 746 mmHg 21%
    14:00 +47°C° 0 mm 10 mps 746 mmHg 26%
    15:00 +45°C° 0 mm 10 mps 745 mmHg 30%
    16:00 +43°C° 0 mm 11 mps 745 mmHg 35%
    17:00 +39°C° 0 mm 11 mps 745 mmHg 46%
    18:00 +36°C° 0 mm 11 mps 746 mmHg 57%
    19:00 +32°C° 0 mm 11 mps 746 mmHg 69%
    20:00 +31°C° 0 mm 10 mps 747 mmHg 70%
    21:00 +31°C° 0 mm 10 mps 747 mmHg 72%
    22:00 +29°C° 0 mm 9 mps 748 mmHg 73%
    23:00 +29°C° 0 mm 9 mps 747 mmHg 74%

    25 July, Wednesday

    Time Temperature Precipitation Wind Pressure Humidity
    00:00 +29°C° 0 mm 8 mps 747 mmHg 74%
    01:00 +29°C° 0 mm 7 mps 747 mmHg 75%
    02:00 +29°C° 0 mm 7 mps 747 mmHg 75%
    03:00 +29°C° 0 mm 7 mps 746 mmHg 76%
    04:00 +29°C° 0 mm 6 mps 746 mmHg 77%
    05:00 +29°C° 0 mm 6 mps 746 mmHg 76%
    06:00 +29°C° 0 mm 7 mps 747 mmHg 74%
    07:00 +30°C° 0 mm 7 mps 747 mmHg 73%
    08:00 +34°C° 0 mm 7 mps 747 mmHg 60%
    09:00 +38°C° 0 mm 7 mps 747 mmHg 47%
    10:00 +41°C° 0 mm 7 mps 747 mmHg 34%
    11:00 +43°C° 0 mm 7 mps 747 mmHg 31%
    12:00 +45°C° 0 mm 7 mps 746 mmHg 27%
    13:00 +47°C° 0 mm 7 mps 746 mmHg 23%
    14:00 +46°C° 0 mm 8 mps 746 mmHg 26%
    15:00 +45°C° 0 mm 8 mps 745 mmHg 29%
    16:00 +44°C° 0 mm 8 mps 745 mmHg 32%
    17:00 +40°C° 0 mm 8 mps 745 mmHg 44%
    18:00 +37°C° 0 mm 8 mps 746 mmHg 55%
    19:00 +32°C° 0 mm 8 mps 746 mmHg 67%
    20:00 +32°C° 0 mm 8 mps 746 mmHg 70%
    21:00 +31°C° 0 mm 8 mps 747 mmHg 73%
    22:00 +29°C° 0 mm 8 mps 747 mmHg 77%
    23:00 +29°C° 0 mm 8 mps 747 mmHg 77%

    26 July, Thursday

    Time Temperature Precipitation Wind Pressure Humidity
    00:00 +29°C° 0 mm 8 mps 747 mmHg 77%
    01:00 +29°C° 0 mm 8 mps 746 mmHg 78%
    02:00 +28°C° 0 mm 7 mps 746 mmHg 78%
    03:00 +28°C° 0 mm 7 mps 746 mmHg 79%
    04:00 +28°C° 0 mm 7 mps 746 mmHg 79%
    05:00 +29°C° 0 mm 7 mps 747 mmHg 74%
    06:00 +30°C° 0 mm 7 mps 747 mmHg 70%
    07:00 +32°C° 0 mm 7 mps 747 mmHg 65%
    08:00 +35°C° 0 mm 7 mps 747 mmHg 52%
    09:00 +39°C° 0 mm 7 mps 748 mmHg 40%
    10:00 +44°C° 0 mm 7 mps 748 mmHg 28%
    11:00 +46°C° 0 mm 8 mps 747 mmHg 23%
    12:00 +49°C° 0 mm 8 mps 747 mmHg 18%
    13:00 +51°C° 0 mm 8 mps 746 mmHg 14%
    14:00 +49°C° 0 mm 9 mps 746 mmHg 18%
    15:00 +48°C° 0 mm 9 mps 746 mmHg 23%
    16:00 +45°C° 0 mm 10 mps 745 mmHg 27%
    17:00 +42°C° 0 mm 10 mps 746 mmHg 41%
    18:00 +37°C° 0 mm 10 mps 746 mmHg 55%
    19:00 +32°C° 0 mm 10 mps 746 mmHg 68%
    20:00 +32°C° 0 mm 9 mps 747 mmHg 69%
    21:00 +32°C° 0 mm 9 mps 747 mmHg 69%
    22:00 +31°C° 0 mm 9 mps 747 mmHg 70%
    23:00 +31°C° 0 mm 8 mps 747 mmHg 69%
    Show more